Location: Dammartin
(48.9032°N, 1.6195°E)
Time: 16:56:05
(UTC+00:00)

Lacrosse 5 rocket - Pass Details

Date: 03 February 2023
Orbit: 455 x 612 km, 57.0° (Epoch: 30 March)

Event Time Altitude Azimuth Distance (km) Brightness Sun altitude
Rises 17:46:10 0° 305° (NW) 2,477 5.3 -8.9°
Reaches altitude 10° 17:48:22 10° 313° (NW) 1,608 4.2 -9.3°
Maximum altitude 17:51:47 41° 25° (NNE) 695 1.5 -9.8°
Enters shadow 17:54:40 14° 93° (E) 1,414 2.8 -10.3°
